Regional Weather Roundup
Issued by NWS

Home | Current Version | Previous Version | Text Only | Print | Product List | Glossary Off
Versions: 1 2 3 4 5 6 7 8 9 10 11 12 13 14 15 16 17 18 19 20 21 22 23 24 25 26 27 28 29 30 31 32 33 34 35 36 37 38 39 40 41 42 43 44 45 46 47 48 49 50

000
ASUS45 KABQ 240310
RWRNM
NEW MEXICO REGIONAL WEATHER ROUNDUP
NATIONAL WEATHER SERVICE ALBUQUERQUE NM
800 PM MST THU FEB 23 2017

NOTE: "FAIR" MEANS FEW OR NO CLOUDS BELOW 12,000 FEET AGL WITH NO
       SIGNIFICANT WEATHER OR OBSTRUCTIONS TO VISION.

      THIS PRODUCT IS RELEASED AS TWO VERSIONS.  ONE VERSION NEAR
      THE TOP OF THE HOUR CONTAINING PRELIMINARY DATA FROM ALBUQUERQUE
      AND OTHER STATIONS.  A FINAL VERSION WITH ADDITIONAL DATA IS
      ISSUED ABOUT 10 MINUTES AFTER THE HOUR.

NMZ501-503-504-510>518-240400-
NORTHWEST PLATEAU/NORTHCENTRAL MOUNTAINS

CITY           SKY/WX    TMP DP  RH WIND       PRES   REMARKS
FARMINGTON     FAIR      31   2  29 NW3       29.78R
LOS ALAMOS     FAIR      32   7  34 W10G17    29.76S WCI  24
SANTA FE       FAIR      35   7  31 NW15      29.74R WCI  25
TAOS             N/A     27   1  33 NW7       29.75R WCI  19
ANGEL FIRE     CLOUDY    25   6  43 SW21G31   29.72R WCI  11

$$
NMZ402-403-502-505>509-240400-
WESTCENTRAL MOUNTAINS/SOUTHWEST MOUNTAINS

CITY           SKY/WX    TMP DP  RH WIND       PRES   REMARKS
GALLUP         FAIR      33  12  41 W13       29.80R WCI  24
GRANTS         FAIR      26  11  53 NW14      29.82R WCI  14
SILVER CITY    FAIR      36  15  42 NW7       29.88R WCI  31

$$
NMZ407-409-411-412-240400-
SOUTHERN DESERTS

CITY           SKY/WX    TMP DP  RH WIND       PRES   REMARKS
DEMING         FAIR      52   9  17 W16       29.84R
LAS CRUCES     FAIR      55   3  12 W16G24    29.84R
HOLLOMAN AFB   FAIR      55   8  15 W14       29.82R
ALAMOGORDO     FAIR      57   7  13 W20       29.81R
T OR C         FAIR      51   6  16 W13G20    29.80R

$$
NMZ519>523-240400-
CENTRAL VALLEYS/CENTRAL HIGHLANDS

CITY           SKY/WX    TMP DP  RH WIND       PRES   REMARKS
ALBUQUERQUE    FAIR      43   7  22 N17G25    29.76R
DOUBLE EAGLE   PTCLDY    37   9  30 NW13      29.77R WCI  29
MORIARTY ARPT  FAIR      34   8  33 NW14      29.75R WCI  24
CLINES CORNERS FAIR      30   6  36 NW14      29.74R WCI  19
BELEN          FAIR      41   8  26 W3        29.77R
SOCORRO        FAIR      47  -2  13 SW7       29.76R

$$
NMZ524>526-539-540-240400-
SOUTHCENTRAL MOUNTAINS

CITY           SKY/WX    TMP DP  RH WIND       PRES   REMARKS
RUIDOSO        FAIR      45   5  19 W21       29.79R

$$
NMZ527>531-240400-
NORTHEAST HIGHLANDS/NORTHEAST PLAINS

CITY           SKY/WX    TMP DP  RH WIND       PRES   REMARKS
LAS VEGAS      FAIR      35   4  27 W20       29.67S WCI  24
RATON          FAIR      34   0  23 NW9       29.69R WCI  27
CLAYTON        FAIR      42  12  29 NW10      29.66R

$$
NMZ532>537-240400-
EASTCENTRAL PLAINS

CITY           SKY/WX    TMP DP  RH WIND       PRES   REMARKS
TUCUMCARI      FAIR      53   9  17 W20G26    29.61R
CANNON AFB     FAIR      55  10  17 NW15      29.65R
CLOVIS AIRPORT FAIR      55  12  18 W14       29.65R

$$
NMZ028-029-538-240400-
SOUTHEAST PLAINS

CITY           SKY/WX    TMP DP  RH WIND       PRES   REMARKS
ROSWELL        FAIR      60  11  14 SW17      29.68R
ARTESIA        FAIR      59  23  25 SW14      29.70R
CARLSBAD       FAIR      59  18  20 W10       29.69R
HOBBS          FAIR      61  18  18 W13       29.70R


$$




USA.gov is the U.S. government's official web portal to all federal, state and local government web resources and services.